Location: Gesvres
(49.0440°N, 2.8518°E)
Time: 14:41:59
(UTC+00:00)

Cosmos 1980 Rocket - Pass Details

Date: 28 January 2023
Orbit: 828 x 851 km, 71.0° (Epoch: 25 March)

Event Time Altitude Azimuth Distance (km) Brightness Sun altitude
Rises 18:32:43 0° 218° (SW) 3,377 6.0 -18.6°
Reaches altitude 10° 18:35:10 10° 222° (SW) 2,450 5.3 -19.0°
Maximum altitude 18:40:44 61° 302° (WNW) 956 2.6 -19.9°
Enters shadow 18:45:58 12° 22° (NNE) 2,327 4.2 -20.8°
